Location: Newark
(52.5294°N, 13.6892°E)
Time: 15:36:34
(UTC+00:00)

N. Korean satellite - Visible Passes

Search period start: 19 January 2020 00:00
Search period end: 29 January 2020 00:00
Orbit: 454 x 508 km, 97.2° (Epoch: 19 January)

Date Brightness Start Highest point End Pass type
(mag) Time Alt. Az. Time Alt. Az. Time Alt. Az.
19 Jan 6.4 05:08:39 10° NNE 05:12:10 88° ESE 05:15:44 10° SSW visible
20 Jan 7.7 04:43:14 10° NNE 04:46:38 45° E 04:50:03 10° S visible
20 Jan 7.9 06:17:17 10° NNW 06:19:46 18° WNW 06:22:17 10° WSW visible
20 Jan 9.6 16:58:43 10° SW 17:01:06 18° W 17:03:30 10° NW visible
21 Jan 8.9 04:18:04 10° NE 04:21:01 24° E 04:23:58 10° SSE visible
21 Jan 7.2 05:51:18 10° N 05:54:27 31° WNW 05:57:38 10° SW visible
21 Jan 8.5 16:32:19 10° SSW 16:35:25 32° W 16:38:33 10° NNW visible
22 Jan 9.8 03:53:25 10° ENE 03:55:18 14° E 03:57:11 10° ESE visible
22 Jan 6.5 05:25:33 10° N 05:29:03 59° WNW 05:32:34 10° SSW visible
22 Jan 7.0 16:06:26 10° S 16:09:49 64° WSW 16:13:15 10° NNW visible
23 Jan 6.8 05:00:01 10° NNE 05:03:34 71° ESE 05:07:08 10° S visible
23 Jan 10.0 17:16:48 10° WSW 17:18:09 12° W 17:19:30 10° WNW visible
24 Jan 8.1 04:34:40 10° NNE 04:37:59 36° E 04:41:20 10° SSE visible
24 Jan 7.7 06:08:25 10° NNW 06:11:14 22° WNW 06:14:02 10° WSW visible
24 Jan 9.4 16:49:42 10° SW 16:52:23 21° W 16:55:07 10° NW visible
25 Jan 9.3 04:09:36 10° NE 04:12:20 20° E 04:15:04 10° SE visible
25 Jan 7.0 05:42:32 10° N 05:45:52 38° WNW 05:49:14 10° SW visible
25 Jan 8.1 16:23:30 10° S 16:26:44 40° W 16:30:01 10° NNW visible
26 Jan 10.1 03:45:19 10° ENE 03:46:35 11° E 03:47:51 10° ESE visible
26 Jan 6.4 05:16:52 10° N 05:20:26 74° WNW 05:24:01 10° SSW visible
27 Jan 7.2 04:51:22 10° NNE 04:54:55 57° E 04:58:29 10° S visible
27 Jan 9.8 17:07:25 10° SW 17:09:24 15° W 17:11:24 10° NW visible
28 Jan 8.6 04:26:06 10° NNE 04:29:18 30° E 04:32:33 10° SSE visible
28 Jan 7.5 05:59:35 10° N 06:02:38 27° WNW 06:05:43 10° SW visible
28 Jan 9.0 16:40:44 10° SSW 16:43:40 26° W 16:46:39 10° NW visible
